,

(GMT )
Teruel

Tiempo Historia de LETL - Mayo, 2017

Change the Weather History Date:

Viernes, Mayo 19, 2017

  Actual Average Record
Temperature  
Temperatura media 52 ° F -  
Temperatura máxima 66 ° F - - ()
Temperatura mínima 37 ° F - - ()
Degree Days  
Grados día de calefacción 14    
Growing Degree Days 2 (Base 50)    
Moisture  
Punto de rocío 38 ° F    
Average Humidity 67    
Maximum Humidity 93    
Minimum Humidity 30    
Precipitación  
Precipitación 0.00 pul - - ()
Presión al nivel del mar  
Presión al nivel del mar 30.14 pul    
Viento  
Velocidad del viento 5 mph ()    
Velocidad máxima del viento 9 mph    
Max Gust Speed -    
Visibilidad 6.2 Millas    
Eventos      
T = Trace of Precipitation, MM = Missing Value Source: Averaged Metar Reports

Daily Weather History Graph

Daily Weather History Graph

Search for Another Location

Airport or City:

Trip Planner

Search our weather history database for the weather conditions in past years. The results will help you decide how hot, cold, wet, or windy it might be!

Date:

Astronomía

May. 19, 2017 Salida Puesta
Hora real 6:45 AM CEST 9:18 PM CEST
Crepúsculo civil 6:13 AM CEST 9:49 PM CEST
Crepúsculo náutico 5:34 AM CEST 10:28 PM CEST
Crepúsculo astronómico 4:51 AM CEST 11:12 PM CEST
Luna 3:02 AM CEST 2:04 PM CEST
Horas de luz 15h 35m
Horas de luz
14h 33m
Cuarto menguante, 46% of the Moon is Illuminated
May 19
Cuarto menguante
May 25
Nueva
Jun 1
Cuarto creciente
Jun 9
Luna llena
Jun 17
Cuarto menguante

Hourly Weather History & Observations

Hora (CEST) Temp. Vientos helados Punto de rocío Humedad Presión Visibilidad Wind Dir Velocidad del viento Velocidad de ráfagas Precip Eventos Condiciones
12:30 AM 44.6 ° F 40.2 ° F 41.0 ° F 87% 30.12 pul 6.2 mi NO 8.1 mph - N/A   Parcialmente nublado
1:00 AM 42.8 ° F 39.3 ° F 41.0 ° F 93% 30.12 pul 6.2 mi Norte 5.8 mph - N/A   Desconocido
1:30 AM 42.8 ° F 38.6 ° F 39.2 ° F 87% 30.12 pul 6.2 mi Norte 6.9 mph - N/A   Desconocido
2:30 AM 42.8 ° F 38.6 ° F 39.2 ° F 87% 30.12 pul 6.2 mi NNO 6.9 mph - N/A   Parcialmente nublado
3:00 AM 41.0 ° F 36.4 ° F 39.2 ° F 93% 30.12 pul 6.2 mi NNO 6.9 mph - N/A   Desconocido
3:30 AM 41.0 ° F 37.1 ° F 39.2 ° F 93% 30.12 pul 6.2 mi NO 5.8 mph - N/A   Muy nublado
4:00 AM 39.2 ° F 35.9 ° F 37.4 ° F 93% 30.12 pul 6.2 mi ONO 4.6 mph - N/A   Desconocido
6:00 AM 37.4 ° F 34.9 ° F 35.6 ° F 93% 30.12 pul 6.2 mi NO 3.5 mph - N/A   Desconocido
6:30 AM 37.4 ° F - 35.6 ° F 93% 30.12 pul 6.2 mi Variable 2.3 mph - N/A   Parcialmente nublado
7:00 AM 37.4 ° F - 35.6 ° F 93% 30.12 pul 6.2 mi Sin viento Sin viento - N/A   Desconocido
8:00 AM 39.2 ° F - 37.4 ° F 93% 30.15 pul 6.2 mi OSO 2.3 mph - N/A   Nubes dispersas
8:30 AM 41.0 ° F 39.0 ° F 37.4 ° F 87% 30.15 pul 6.2 mi OSO 3.5 mph - N/A   Muy nublado
9:00 AM 42.8 ° F - 37.4 ° F 81% 30.15 pul 6.2 mi SO 1.2 mph - N/A   Muy nublado
10:00 AM 44.6 ° F - 37.4 ° F 76% 30.18 pul 6.2 mi NNO 1.2 mph - N/A   Nubes dispersas
11:00 AM 48.2 ° F - 39.2 ° F 71% 30.18 pul 6.2 mi SE 2.3 mph - N/A   Desconocido
11:30 AM 51.8 ° F - 37.4 ° F 58% 30.18 pul 6.2 mi NE 1.2 mph - N/A   Desconocido
12:00 PM 53.6 ° F - 39.2 ° F 58% 30.18 pul 6.2 mi Norte 8.1 mph - N/A   Desconocido
1:30 PM 57.2 ° F - 41.0 ° F 55% 30.15 pul 6.2 mi Norte 6.9 mph - N/A   Desconocido
2:30 PM 59.0 ° F - 41.0 ° F 51% 30.15 pul 6.2 mi NNE 4.6 mph - N/A   Desconocido
3:00 PM 59.0 ° F - 39.2 ° F 48% 30.15 pul 6.2 mi NNO 4.6 mph - N/A   Parcialmente nublado
4:00 PM 60.8 ° F - 37.4 ° F 42% 30.12 pul 6.2 mi Norte 4.6 mph - N/A   Desconocido
4:30 PM 62.6 ° F - 37.4 ° F 39% 30.12 pul 6.2 mi NNO 4.6 mph - N/A   Desconocido
5:00 PM 62.6 ° F - 35.6 ° F 37% 30.12 pul 6.2 mi Norte 6.9 mph - N/A   Desconocido
6:00 PM 64.4 ° F - 35.6 ° F 34% 30.12 pul 6.2 mi NNO 8.1 mph - N/A   Parcialmente nublado
8:00 PM 66.2 ° F - 33.8 ° F 30% 30.12 pul 6.2 mi Oeste 9.2 mph - N/A   Desconocido
8:30 PM 64.4 ° F - 33.8 ° F 32% 30.12 pul 6.2 mi Oeste 6.9 mph - N/A   Desconocido
9:00 PM 62.6 ° F - 35.6 ° F 37% 30.15 pul 6.2 mi ONO 6.9 mph - N/A   Desconocido
9:30 PM 60.8 ° F - 37.4 ° F 42% 30.15 pul 6.2 mi NNO 8.1 mph - N/A   Desconocido
11:30 PM 51.8 ° F - 42.8 ° F 71% 30.21 pul 6.2 mi Norte 4.6 mph - N/A   Desconocido